星链-4216 (STARLINK-4216 )

导读 | 豆包AI

STARLINK-4216是美国太空探索技术公司SpaceX星链卫星互联网项目的卫星,于2022年7月7日发射入轨,属于星链星座组网卫星。星链项目旨在构建全球卫星互联网,该卫星承担着为全球偏远地区、海洋空域等提供低延迟宽带网络覆盖的任务,是美国星链低轨星座建设中的一员,补充完善了星链星座的通信覆盖能力。

基本信息
目录编号:
53022
目录名称:
STARLINK-4216
国际标识:
2022-076AN
轨道中心:
EARTH
卫星名称:
星链-4216
卫星全名:
星链-4216 (STARLINK-4216 )
卫星状态:
在轨 (已飞行1347 天)
发射日期:
2022-07-07 UTC
国别 :
美国 (US)
星等 :
--
轨道信息
数据来源 国际轨道数据
星历时间: 2026-03-14T17:10:32+0800
17小时前
查看轨道信息
半长轴: 6917.897km
偏心率: 0.0001199
轨道倾角: 53.217°
近地点辐角 92.184°
升交点赤经 63.054°
平近点角 267.929°
近地点: 538.93km
远地点: 540.59km
周期: 95.438分钟
每日圈数: 15.088348
详细信息
固有亮度:
5
最大亮度:
2.5
卫星平台:
Starlink v1.5
覆盖范围:
全球
运营商:
太空探索技术公司
运营商所在国:
美国
制造商(研发单位):
太空探索技术公司
制造商所在国:
美国
使用方式:
暂无
卫星简介
星链(Starlink)计划是由太空探索技术公司(SpaceX)提出的一个巨型低轨卫星互联网星座项目,计划在2019年至2024年间在太空搭建由约1.2万颗卫星组成的“星链”网络,其中1584颗将部署在地球上空550千米处的近地轨道,并从2020年开始工作。该卫星仍在工作。
2D轨道图
3D轨道图
轨道高度分析图
轨道倾角分析图
轨道综合分析图
查看轨道综合分析图